Time,TemperatureF,DewpointF,PressureIn,WindDirection,WindDirectionDegrees,WindSpeedMPH,WindSpeedGustMPH,Humidity,HourlyPrecipIn,Conditions,Clouds,dailyrainin,SoftwareType,DateUTC
2013-09-30 00:01:00,72.0,26.0,-100.00,WSW,247,5.0,18.0,18,0.00,,,0.00,,2013-09-30 00:01:00,
2013-09-30 00:11:00,72.0,26.0,-100.00,WSW,247,5.0,18.0,18,0.00,,,0.00,,2013-09-30 00:11:00,
2013-09-30 00:42:00,70.0,25.0,-100.00,SW,236,5.0,15.0,18,0.00,,,0.00,,2013-09-30 00:42:00,
2013-09-30 00:52:00,70.0,25.0,-100.00,SW,236,5.0,15.0,18,0.00,,,0.00,,2013-09-30 00:52:00,
2013-09-30 01:02:00,70.0,25.0,-100.00,SW,236,5.0,15.0,18,0.00,,,0.00,,2013-09-30 01:02:00,
2013-09-30 01:11:00,70.0,25.0,-100.00,SW,236,5.0,15.0,18,0.00,,,0.00,,2013-09-30 01:11:00,
2013-09-30 01:42:00,61.0,21.0,-100.00,SSE,159,3.0,11.0,21,0.00,,,0.00,,2013-09-30 01:42:00,
2013-09-30 01:52:00,61.0,21.0,-100.00,SSE,159,3.0,11.0,21,0.00,,,0.00,,2013-09-30 01:52:00,
2013-09-30 02:02:00,61.0,21.0,-100.00,SSE,159,3.0,11.0,21,0.00,,,0.00,,2013-09-30 02:02:00,
2013-09-30 02:12:00,61.0,21.0,-100.00,SSE,159,3.0,11.0,21,0.00,,,0.00,,2013-09-30 02:12:00,
2013-09-30 02:52:00,50.0,26.0,-100.00,SE,136,4.0,5.0,39,0.00,,,0.00,,2013-09-30 02:52:00,
2013-09-30 03:02:00,50.0,26.0,-100.00,SE,136,4.0,5.0,39,0.00,,,0.00,,2013-09-30 03:02:00,
2013-09-30 03:11:00,50.0,26.0,-100.00,SE,136,4.0,5.0,39,0.00,,,0.00,,2013-09-30 03:11:00,
2013-09-30 03:45:00,46.0,26.0,-100.00,South,178,2.0,5.0,45,0.00,,,0.00,,2013-09-30 03:45:00,
2013-09-30 03:55:00,46.0,26.0,-100.00,South,178,2.0,5.0,45,0.00,,,0.00,,2013-09-30 03:55:00,
2013-09-30 04:04:00,46.0,26.0,-100.00,South,178,2.0,5.0,45,0.00,,,0.00,,2013-09-30 04:04:00,
2013-09-30 04:14:00,46.0,26.0,-100.00,South,178,2.0,5.0,45,0.00,,,0.00,,2013-09-30 04:14:00,
2013-09-30 04:44:00,44.0,25.0,-100.00,SSE,147,4.0,5.0,46,0.00,,,0.00,,2013-09-30 04:44:00,
2013-09-30 04:53:00,44.0,25.0,-100.00,SSE,147,4.0,5.0,46,0.00,,,0.00,,2013-09-30 04:53:00,
2013-09-30 05:02:00,44.0,25.0,-100.00,SSE,147,4.0,5.0,46,0.00,,,0.00,,2013-09-30 05:02:00,
2013-09-30 05:12:00,44.0,25.0,-100.00,SSE,147,4.0,5.0,46,0.00,,,0.00,,2013-09-30 05:12:00,
2013-09-30 05:43:00,41.0,24.0,-100.00,SE,126,2.0,5.0,51,0.00,,,0.00,,2013-09-30 05:43:00,
2013-09-30 05:52:00,41.0,24.0,-100.00,SE,126,2.0,5.0,51,0.00,,,0.00,,2013-09-30 05:52:00,
2013-09-30 06:02:00,41.0,24.0,-100.00,SE,126,2.0,5.0,51,0.00,,,0.00,,2013-09-30 06:02:00,
2013-09-30 06:12:00,41.0,24.0,-100.00,SE,126,2.0,5.0,51,0.00,,,0.00,,2013-09-30 06:12:00,
2013-09-30 06:42:00,38.0,22.0,-100.00,SE,133,3.0,4.0,53,0.00,,,0.00,,2013-09-30 06:42:00,
2013-09-30 06:52:00,38.0,22.0,-100.00,SE,133,3.0,4.0,53,0.00,,,0.00,,2013-09-30 06:52:00,
2013-09-30 07:01:00,38.0,22.0,-100.00,SE,133,3.0,4.0,53,0.00,,,0.00,,2013-09-30 07:01:00,
2013-09-30 07:12:00,38.0,22.0,-100.00,SE,133,3.0,4.0,53,0.00,,,0.00,,2013-09-30 07:12:00,
2013-09-30 07:42:00,38.0,22.0,-100.00,SE,130,1.0,5.0,52,0.00,,,0.00,,2013-09-30 07:42:00,
2013-09-30 07:53:00,38.0,22.0,-100.00,SE,130,1.0,5.0,52,0.00,,,0.00,,2013-09-30 07:53:00,
2013-09-30 08:02:00,38.0,22.0,-100.00,SE,130,1.0,5.0,52,0.00,,,0.00,,2013-09-30 08:02:00,
2013-09-30 08:12:00,38.0,22.0,-100.00,SE,130,1.0,5.0,52,0.00,,,0.00,,2013-09-30 08:12:00,
2013-09-30 08:42:00,38.0,25.0,-100.00,SE,146,3.0,4.0,58,0.00,,,0.00,,2013-09-30 08:42:00,
2013-09-30 08:52:00,38.0,25.0,-100.00,SE,146,3.0,4.0,58,0.00,,,0.00,,2013-09-30 08:52:00,
2013-09-30 09:02:00,38.0,25.0,-100.00,SE,146,3.0,4.0,58,0.00,,,0.00,,2013-09-30 09:02:00,
2013-09-30 09:11:00,38.0,25.0,-100.00,SE,146,3.0,4.0,58,0.00,,,0.00,,2013-09-30 09:11:00,
2013-09-30 09:42:00,37.0,25.0,-100.00,SE,133,3.0,4.0,61,0.00,,,0.00,,2013-09-30 09:42:00,
2013-09-30 09:53:00,37.0,25.0,-100.00,SE,133,3.0,4.0,61,0.00,,,0.00,,2013-09-30 09:53:00,
2013-09-30 10:03:00,37.0,25.0,-100.00,SE,133,3.0,4.0,61,0.00,,,0.00,,2013-09-30 10:03:00,
2013-09-30 10:13:00,37.0,25.0,-100.00,SE,133,3.0,4.0,61,0.00,,,0.00,,2013-09-30 10:13:00,
2013-09-30 10:43:00,36.0,24.0,-100.00,SE,143,2.0,5.0,62,0.00,,,0.00,,2013-09-30 10:43:00,
2013-09-30 10:53:00,36.0,24.0,-100.00,SE,143,2.0,5.0,62,0.00,,,0.00,,2013-09-30 10:53:00,
2013-09-30 11:02:00,36.0,24.0,-100.00,SE,143,2.0,5.0,62,0.00,,,0.00,,2013-09-30 11:02:00,
2013-09-30 11:12:00,36.0,24.0,-100.00,SE,143,2.0,5.0,62,0.00,,,0.00,,2013-09-30 11:12:00,
2013-09-30 11:43:00,35.0,25.0,-100.00,ESE,116,2.0,4.0,67,0.00,,,0.00,,2013-09-30 11:43:00,
2013-09-30 11:52:00,35.0,25.0,-100.00,ESE,116,2.0,4.0,67,0.00,,,0.00,,2013-09-30 11:52:00,
2013-09-30 12:02:00,35.0,25.0,-100.00,ESE,116,2.0,4.0,67,0.00,,,0.00,,2013-09-30 12:02:00,
2013-09-30 12:12:00,35.0,25.0,-100.00,ESE,116,2.0,4.0,67,0.00,,,0.00,,2013-09-30 12:12:00,
2013-09-30 12:42:00,35.0,22.0,-100.00,ESE,122,2.0,4.0,58,0.00,,,0.00,,2013-09-30 12:42:00,
2013-09-30 12:52:00,35.0,22.0,-100.00,ESE,122,2.0,4.0,58,0.00,,,0.00,,2013-09-30 12:52:00,
2013-09-30 13:01:00,35.0,22.0,-100.00,ESE,122,2.0,4.0,58,0.00,,,0.00,,2013-09-30 13:01:00,
2013-09-30 13:11:00,35.0,22.0,-100.00,ESE,122,2.0,4.0,58,0.00,,,0.00,,2013-09-30 13:11:00,
2013-09-30 13:42:00,33.0,22.0,-100.00,SE,132,1.0,4.0,63,0.00,,,0.00,,2013-09-30 13:42:00,
2013-09-30 13:52:00,33.0,22.0,-100.00,SE,132,1.0,4.0,63,0.00,,,0.00,,2013-09-30 13:52:00,
2013-09-30 14:01:00,33.0,22.0,-100.00,SE,132,1.0,4.0,63,0.00,,,0.00,,2013-09-30 14:01:00,
2013-09-30 14:11:00,33.0,22.0,-100.00,SE,132,1.0,4.0,63,0.00,,,0.00,,2013-09-30 14:11:00,
2013-09-30 14:42:00,38.0,26.0,-100.00,SE,124,3.0,4.0,61,0.00,,,0.00,,2013-09-30 14:42:00,
2013-09-30 14:53:00,38.0,26.0,-100.00,SE,124,3.0,4.0,61,0.00,,,0.00,,2013-09-30 14:53:00,
2013-09-30 15:02:00,38.0,26.0,-100.00,SE,124,3.0,4.0,61,0.00,,,0.00,,2013-09-30 15:02:00,
2013-09-30 15:11:00,38.0,26.0,-100.00,SE,124,3.0,4.0,61,0.00,,,0.00,,2013-09-30 15:11:00,
2013-09-30 15:54:00,53.0,32.0,-100.00,SE,136,2.0,4.0,45,0.00,,,0.00,,2013-09-30 15:54:00,
2013-09-30 16:04:00,53.0,32.0,-100.00,SE,136,2.0,4.0,45,0.00,,,0.00,,2013-09-30 16:04:00,
2013-09-30 16:14:00,53.0,32.0,-100.00,SE,136,2.0,4.0,45,0.00,,,0.00,,2013-09-30 16:14:00,
2013-09-30 16:53:00,65.0,18.0,-100.00,SW,235,4.0,10.0,16,0.00,,,0.00,,2013-09-30 16:53:00,
2013-09-30 17:03:00,65.0,18.0,-100.00,SW,235,4.0,10.0,16,0.00,,,0.00,,2013-09-30 17:03:00,
2013-09-30 17:13:00,65.0,18.0,-100.00,SW,235,4.0,10.0,16,0.00,,,0.00,,2013-09-30 17:13:00,
2013-09-30 17:43:00,67.0,21.0,-100.00,WSW,237,5.0,12.0,17,0.00,,,0.00,,2013-09-30 17:43:00,
2013-09-30 17:53:00,67.0,21.0,-100.00,WSW,237,5.0,12.0,17,0.00,,,0.00,,2013-09-30 17:53:00,
2013-09-30 18:01:00,67.0,21.0,-100.00,WSW,237,5.0,12.0,17,0.00,,,0.00,,2013-09-30 18:01:00,
2013-09-30 18:12:00,67.0,21.0,-100.00,WSW,237,5.0,12.0,17,0.00,,,0.00,,2013-09-30 18:12:00,
2013-09-30 18:42:00,70.0,22.0,-100.00,West,268,7.0,15.0,16,0.00,,,0.00,,2013-09-30 18:42:00,
2013-09-30 18:53:00,70.0,22.0,-100.00,West,268,7.0,15.0,16,0.00,,,0.00,,2013-09-30 18:53:00,
2013-09-30 19:02:00,70.0,22.0,-100.00,West,268,7.0,15.0,16,0.00,,,0.00,,2013-09-30 19:02:00,
2013-09-30 19:12:00,70.0,22.0,-100.00,West,268,7.0,15.0,16,0.00,,,0.00,,2013-09-30 19:12:00,
2013-09-30 19:42:00,71.0,21.0,-100.00,WSW,252,6.0,16.0,15,0.00,,,0.00,,2013-09-30 19:42:00,
2013-09-30 19:53:00,71.0,21.0,-100.00,WSW,252,6.0,16.0,15,0.00,,,0.00,,2013-09-30 19:53:00,
2013-09-30 20:02:00,71.0,21.0,-100.00,WSW,252,6.0,16.0,15,0.00,,,0.00,,2013-09-30 20:02:00,
2013-09-30 20:12:00,71.0,21.0,-100.00,WSW,252,6.0,16.0,15,0.00,,,0.00,,2013-09-30 20:12:00,
2013-09-30 20:43:00,72.0,22.0,-100.00,WSW,244,5.0,17.0,15,0.00,,,0.00,,2013-09-30 20:43:00,
2013-09-30 20:53:00,72.0,22.0,-100.00,WSW,244,5.0,17.0,15,0.00,,,0.00,,2013-09-30 20:53:00,
2013-09-30 21:02:00,72.0,22.0,-100.00,WSW,244,5.0,17.0,15,0.00,,,0.00,,2013-09-30 21:02:00,
2013-09-30 21:11:00,72.0,22.0,-100.00,WSW,244,5.0,17.0,15,0.00,,,0.00,,2013-09-30 21:11:00,
2013-09-30 21:44:00,73.0,23.0,-100.00,WSW,253,6.0,15.0,15,0.00,,,0.00,,2013-09-30 21:44:00,
2013-09-30 21:54:00,73.0,23.0,-100.00,WSW,253,6.0,15.0,15,0.00,,,0.00,,2013-09-30 21:54:00,
2013-09-30 22:03:00,73.0,23.0,-100.00,WSW,253,6.0,15.0,15,0.00,,,0.00,,2013-09-30 22:03:00,
2013-09-30 22:13:00,73.0,23.0,-100.00,WSW,253,6.0,15.0,15,0.00,,,0.00,,2013-09-30 22:13:00,
2013-09-30 22:44:00,73.0,21.0,-100.00,West,268,8.0,17.0,14,0.00,,,0.00,,2013-09-30 22:44:00,
2013-09-30 22:54:00,73.0,21.0,-100.00,West,268,8.0,17.0,14,0.00,,,0.00,,2013-09-30 22:54:00,
2013-09-30 23:03:00,73.0,21.0,-100.00,West,268,8.0,17.0,14,0.00,,,0.00,,2013-09-30 23:03:00,
2013-09-30 23:12:00,73.0,21.0,-100.00,West,268,8.0,17.0,14,0.00,,,0.00,,2013-09-30 23:12:00,
2013-09-30 23:43:00,72.0,22.0,-100.00,West,263,8.0,15.0,15,0.00,,,0.00,,2013-09-30 23:43:00,
2013-09-30 23:54:00,72.0,22.0,-100.00,West,263,8.0,15.0,15,0.00,,,0.00,,2013-09-30 23:54:00,